This is the latest recevied weather packets stored in our database for station/object KO4APQ. If no packets are shown the sender has not sent any weather packets the latest 1 day(s).
| Time | Temp. | Humidity | Pressure | Rain* | Wind** | Luminosity | Snow |
|---|---|---|---|---|---|---|---|
| 1778084285 | 21.11° C | 73% | 1016.9 hPa | 0 mm | - | 130 W/m² | - |
| 1778083680 | 21.67° C | 70% | 1016.9 hPa | 0 mm | - | 134 W/m² | - |
| 1778083075 | 21.11° C | 72% | 1016.6 hPa | 0 mm | - | 261 W/m² | - |
| 1778081644 | 20.56° C | 72% | 1015.9 hPa | 0 mm | - | 395 W/m² | - |
| 1778081038 | 20.56° C | 72% | 1016.1 hPa | 0 mm | - | 287 W/m² | - |
| 1778080737 | 20.56° C | 72% | 1016.1 hPa | 0 mm | - | 219 W/m² | - |
| 1778079827 | 20.56° C | 71% | 1016.2 hPa | 0 mm | - | 265 W/m² | - |
| 1778079524 | 20.56° C | 71% | 1015.9 hPa | 0 mm | - | 341 W/m² | - |
| 1778079220 | 20.56° C | 71% | 1015.6 hPa | 0 mm | - | 285 W/m² | - |
| 1778078918 | 20° C | 71% | 1015.9 hPa | 0 mm | - | 281 W/m² | - |
| 1778078614 | 20° C | 70% | 1015.7 hPa | 0 mm | - | 265 W/m² | - |
| 1778078313 | 20° C | 71% | 1015.7 hPa | 0 mm | - | 276 W/m² | - |
| 1778077708 | 20° C | 71% | 1015.5 hPa | 0 mm | - | 255 W/m² | - |
| 1778076499 | 20° C | 71% | 1015.2 hPa | 0 mm | - | 243 W/m² | - |
| 1778075286 | 19.44° C | 70% | 1015.1 hPa | 0 mm | - | 153 W/m² | - |
| 1778074376 | 19.44° C | 69% | 1014.9 hPa | 0 mm | - | 154 W/m² | - |
| 1778073770 | 18.89° C | 69% | 1015.2 hPa | 0 mm | - | 133 W/m² | - |
| 1778073468 | 18.89° C | 69% | 1015.1 hPa | 0 mm | - | 139 W/m² | - |
| 1778072557 | 18.33° C | 69% | 1014.9 hPa | 0 mm | - | 165 W/m² | - |
| 1778071046 | 18.33° C | 69% | 1015.4 hPa | 0 mm | - | 131 W/m² | - |
| 1778070441 | 17.78° C | 68% | 1015.2 hPa | 0 mm | - | 106 W/m² | - |
| 1778068928 | 17.78° C | 66% | 1014.9 hPa | 0 mm | - | 93 W/m² | - |
| 1778068626 | 17.78° C | 66% | 1014.7 hPa | 0 mm | - | 111 W/m² | - |
| 1778067417 | 17.78° C | 66% | 1014.5 hPa | 0 mm | - | 48 W/m² | - |
| 1778067114 | 17.78° C | 65% | 1014.6 hPa | 0 mm | - | 21 W/m² | - |
* Rain latest hour (hover to see other rain measurements)
** Current wind speed in m/s (hover to see current wind gust speed)